TIMESTAMP,CO2_1_1_1,H2O_1_1_1,TAU_1_1_1,TAU_SSITC_TEST_1_1_1,H_1_1_1,H_SSITC_TEST_1_1_1,LE_1_1_1,LE_SSITC_TEST_1_1_1,FC_1_1_1,FC_SSITC_TEST_1_1_1,WD_0_0_1,WS_0_0_1,WS_MAX_0_0_1,U_SIGMA_0_0_1,V_SIGMA_0_0_1,W_SIGMA_0_0_1,USTAR_0_0_1,MO_LENGTH_0_0_1,ZL_0_0_1,FETCH_MAX_0_0_1,FETCH_70_0_0_1,FETCH_80_0_0_1,FETCH_90_0_0_1,PA_0_0_1,RH_0_0_1,TA_0_0_1,VPD_0_0_1,T_SONIC_0_0_1,T_SONIC_SIGMA_0_0_1
[yyyymmddHHMMSS],[mmolCO2 mol-1],[mmolH2O mol-1],[kg m-1 s-2],[#],[W m-2],[#],[W m-2],[#],[umolCO2 m-2 s-1],[#],[Decimal degrees],[m s-1],[m s-1],[m s-1],[m s-1],[m s-1],[m s-1],[m],[#],[m],[m],[m],[m],[kPa],[%],[deg C],[hPa],[deg C],[deg C]
20240403003000,419.57753399409319,5.6435091256986460,0.90590518087583316,0,-23.056971654453996,0,-0.79113646956509676,1,1.8382292862533745,0,347.74220217100242,4.7859270986224018,13.498279108471065,2.0033898846676954,1.4720945905596243,1.0184740915772192,0.87209356416531114,2383.8761775998023,7.9702126220037514E-003,110.59751690846686,202.20753417753846,241.99077388567054,302.94373323500287,93.204564645399316,93.716666666666669,-1.1240000000000236,0.35275742182375780,-0.70061858226631557,0.15679889994775023
20240403010000,419.58772858036355,5.7210382918370906,1.3994068035399310,0,-29.239735389776293,0,-3.6511106187587661,1,2.5856863690278118,0,342.52272358661469,5.0410540338794876,13.932262324872408,2.3037066434972560,1.3978732787712558,1.0712105474141413,1.0842367032982156,3611.3266361157157,5.2612244514210135E-003,126.43121499670477,231.15658418183455,276.63539305027513,346.31468534902365,93.164129782769109,94.703333333333333,-1.0866666666666447,0.29817926688860669,-0.65724557269061279,0.17179303337335042
20240403013000,419.59523620035895,5.6848131451343695,0.85083123698680452,0,-45.094601622225468,0,-1.0699838556732126,2,2.0092993843095490,0,345.58423724341395,4.9389684255561868,13.640540394983891,1.9834302082795472,1.5300563983532209,0.98536119487075891,0.84605701015845280,1112.4551599289177,1.7079340079841094E-002,110.84043929656204,202.65167377909839,242.52229555390073,303.60913529097149,93.146381290375800,91.636666666666670,-0.72633333333334349,0.48340238020981818,-0.29255345061812932,0.26677037506708334
20240403020000,419.06225228387427,5.0744535276552654,1.7126290821719423,0,-116.26655272890348,0,39.812191501212126,1,4.9969779261978911,0,347.72777917337260,5.5227547478287855,14.651043556849295,2.5136780947278536,1.6854022117101353,1.2384865268598602,1.2023312150672116,1237.9170016207322,1.5348363400069967E-002,122.28161577641234,223.56979336034792,267.55594213036875,334.94829020414124,93.117600751736120,76.715333333333334,0.15033333333332166,1.4345820254558088,0.48606689368352818,0.30841198183304924
20240403023000,419.58861557756489,4.9156474838072066,1.4802334346952095,0,-67.938988653132455,0,-0.63159306753152678,2,2.2445889036837605,0,354.63867463978397,5.7118996878501607,17.491058712009352,2.4600998804161152,1.8768187784440817,1.2055270409986585,1.1182461005102053,1704.0703383875752,1.1149774496971864E-002,117.90799343834090,215.57341683105241,257.98632172786461,322.96826103267318,93.096765033854169,73.325666666666663,0.33199999999999363,1.6652113179020744,0.62740301683214739,0.23451779609395471
20240403030000,420.64997954011932,5.1304884432654498,0.94032178575697345,0,-50.277274065342574,0,15.825867604866781,1,2.5742766461119357,0,357.67864602106988,5.3230198064461263,14.839760675647819,2.1802683540390806,1.6517446513665524,1.0760300594115737,0.89109912378473433,1165.1200995209181,1.6307331757312013E-002,107.68028346135091,196.87390103232269,235.60777723976022,294.95297886825932,93.083485942925350,77.455333333333328,0.16433333333333167,1.3904018059361511,0.48020483059349317,0.21449417560756603
20240403033000,420.84267340857093,5.3901037840803632,0.82176206631383808,0,-41.573414151856824,0,-1.0289728136162128,2,2.0896550704360473,0,357.10671584693608,5.2345391071505389,13.758643331262036,1.9888666476277153,1.6384005727569406,1.0419108347216817,0.83269546497489211,1149.5348569114237,1.6528424419464147E-002,104.65968323187253,191.35128044180411,228.99861088988945,286.67908687043069,93.052994605685754,83.358333333333334,-0.17166666666668107,1.0015940981085738,0.17260192447247391,0.28852852686765401
20240403040000,420.90492452487752,5.6948386903159154,0.69001790860260004,0,-33.013963780733938,0,4.0260303021544805,2,1.2743651118970913,0,0.25990600308162470,4.9518022811411466,14.315315687471234,1.9602297651503779,1.4254609872683888,0.89783000705610405,0.76243295538184275,1111.0519710333008,1.7100910214244629E-002,109.86539837844762,200.86898800743413,240.38887598951774,300.93834715713905,93.031707062500004,91.473333333333329,-0.69466666666664878,0.49398490300723552,-0.28652261903550880,0.19232347506709893
20240403043000,420.73021286226259,5.9174833052596014,0.64599150228904612,0,-30.644643721548036,0,-2.9527149722099710,1,1.5501038642616367,0,354.03303033396776,4.7316767393455237,13.140742560668102,1.7873949338586659,1.3839528221928352,0.89513593648139766,0.73799421327574166,1085.3272908844324,1.7506239969803869E-002,107.29662727408945,196.17245516114369,234.76832568373419,293.90208513306015,93.005559998063930,94.253333333333330,-0.58333333333331439,0.33564618953190917,-0.14255660084040755,0.19362725162496391
20240403050000,420.43973444545179,6.0174198068555205,0.79821292645433350,0,-33.838094165968101,0,-1.9051351750411345,1,1.9295014489729239,0,358.04621472625519,5.1288190084337471,14.146676843903411,1.9765150077884377,1.6307293492506802,1.0063507156153020,0.82088003122611408,1352.3984714794055,1.4049113778733914E-002,106.38469796017053,194.50515753036257,232.77299625344594,291.40416946074288,92.977511168619799,94.016666666666666,-0.32333333333332348,0.35615828885161593,0.11172645823165794,0.19524270930168194
20240403053000,420.36383061840058,5.9896428655256768,1.1348048567363087,0,-33.988784196791784,0,-0.35586591742119406,1,2.5128970686394148,0,358.21074991014450,5.5563772190382101,16.960947634622805,2.2262798731364177,1.7383290784465164,1.1213575139962015,0.97889197644151016,2282.5459870095201,8.3240382047648775E-003,112.31750222581483,205.35221589883193,245.75415474314039,307.65503948953682,92.942002142361105,93.776666666666671,-0.35700000000002774,0.36953680787259374,6.0358709123420340E-002,0.20311968559157281
20240403060000,420.51317404150984,5.8373532752929442,0.97935221825471519,0,-30.603558033198226,0,-3.5453974764314240,1,2.5255538649938516,0,2.1535197490117355,6.0548130044129582,17.556685597276566,2.4092070434749626,1.8766783158645495,1.1633386016577114,0.90932158455819856,2031.3597720018779,9.3533406843415798E-003,102.81677765038425,187.98186127425461,224.96627670799580,281.63108296888066,92.902165529947936,92.250000000000000,-0.49099999999998545,0.45571531283454764,-8.8473364088258677E-002,0.21238051763072660
20240403063000,420.62930564742368,5.6535706680200359,0.90951831929720339,0,-33.852636857160228,0,-2.6054853516717271,1,2.3082228013587809,0,0.49835209256758617,6.0903596287394555,16.193916870388936,2.1589801345066562,1.7397012239994161,1.1270064664008710,0.87630196326920251,1643.1886171588192,1.1562884383201391E-002,102.38511000584111,187.19263514669575,224.02177460447342,280.44867841396751,92.879903344184015,89.626666666666665,-0.53733333333332212,0.60791400404933027,-0.14645847151012958,0.23216372171339200
20240403070000,420.68318521905093,5.5766768593475131,1.1226748576871994,0,-35.664326582774095,0,2.1387945154822843,1,2.5068453999468643,0,358.68206802457178,5.9331563761778270,18.304938831565877,2.4465890002658082,1.7581514564888248,1.1460058231008028,0.97343509080241819,2137.3081420693170,8.8896868102530217E-003,109.88819468335002,200.91066692330426,240.43875500687062,301.00078976800535,92.840423900728268,89.626666666666665,-0.73066666666665014,0.59939092445669417,-0.34880080060133878,0.23780995172799926
20240403073000,420.69221673146166,5.5494812253963604,0.87582675676659905,0,-22.939669510267493,0,-1.3251278000067830,2,1.8111408632705115,0,355.83907509957760,5.1599144511549975,14.101808781608382,2.1359862318685972,1.5431950650482946,1.0160858570639484,0.85961305905277530,2287.4143351781813,8.3063219932649271E-003,109.53501657806190,200.26494470645821,239.66599043306127,300.03338022117623,92.794348345486114,90.726666666666674,-0.97100000000000364,0.52649143191586856,-0.56906005647442726,0.18239970912787060
20240403080000,420.74522762349073,5.4104204249669845,0.77881073847952265,0,-22.645424930327600,0,-8.5707438162706850,1,1.7535495359185114,0,353.95451762429434,5.1871670888892885,13.260467769137801,1.9709825294113192,1.5902212122335067,0.97751116826258755,0.81052551009324370,1941.9955171827175,9.7837506996739047E-003,107.78811274379339,197.07104735101331,235.84371103136053,295.24833997842074,92.769266469184032,89.166666666666671,-1.0843333333333476,0.60997381284958585,-0.69389270612924747,0.18603939683666365
20240403083000,420.73924437234297,5.2555893774181008,1.3306520825853201,0,-11.540188218774153,0,2.1934998879394283,1,2.3408472761640531,0,348.07290923846631,5.1185104734142657,15.204227342710931,2.2830205390569152,1.5488636365867616,1.0856383887932923,1.0589116092916271,8495.2877347922422,2.2365340166391264E-003,122.74237265407717,224.41220388358829,268.56409237203775,336.21037467525116,92.738201722656243,88.870000000000005,-1.4390000000000214,0.61057154396450586,-1.0688160603840515,0.24183410789456594
20240403090000,420.52354760036832,5.2598503188863699,1.1162762091777483,0,-13.624803153016193,0,-0.92875972822719344,0,2.3089940642534441,0,347.42105205580896,5.4201154385402761,14.977456613707229,2.2669898979383136,1.7285916383438156,1.1411829741529911,0.96927336775385808,5517.8999706227432,3.4433389697449850E-003,109.88228878387514,200.89986905547417,240.42583271689193,300.98461259436669,92.724759009982634,91.409999999999997,-1.8126666666666438,0.45844266968553771,-1.4321845669217055,0.19004670729952555
20240403093000,420.41081943764050,5.2361643377243547,1.8267604184628390,0,-8.6805684288225073,0,-0.52047612934282761,0,3.8172198459686397,0,345.31171001135652,5.3663194133719534,16.639515725223788,2.4223844375808143,1.8119342486437657,1.3086855265885928,1.2396111273808941,18110.878049322379,1.0490932547972673E-003,119.89885428769649,219.21334541617580,262.34238659352491,328.42153733501868,92.685620205946179,92.700000000000003,-2.0693333333333612,0.38228321881222882,-1.6941004182320967,0.18860750408605775
20240403100000,420.33381531609905,5.1080437318323435,2.4705563003507982,0,-5.3755849242123537,1,4.8002106841550614,1,5.8357791166387898,0,341.00400518835892,6.7847221292788813,18.747209907475352,3.0611444429160066,1.8877860287720658,1.4651744172577059,1.4411606861281943,45942.722045071576,4.1355843002424344E-004,123.57009007862661,225.92553532259740,270.37516359428895,338.47762093598044,92.651059329427085,92.083333333333329,-2.3190000000000168,0.40698912288820566,-1.9713865420023922,0.23655023189586158
20240403103000,420.26362201258269,4.9422546227944526,1.7193696622889436,0,-6.4369489956832675,1,2.1492533962029863,1,4.3098888994409439,0,343.98341692793417,6.4679216806046833,16.724555819499809,2.5347292655939087,2.0563937850342677,1.3859083305545667,1.2014515767925682,22231.936381856456,8.5462641101770841E-004,111.69463492480241,204.21341581924446,244.39130190147293,305.94890945377051,92.664995008680563,91.166666666666671,-2.6270000000000095,0.44385983311529120,-2.2830888765122381,0.22033065165527482
20240403110000,420.34608042055447,4.8582930298138667,1.3589952880000744,0,-7.8300940690240575,1,-0.79732102555840700,2,3.3622866936396680,0,344.66983403393618,6.6191282717283890,16.800350761015128,2.6973600622627809,1.8479763254931065,1.2146745420647922,1.0677496172515775,12828.394830562789,1.4810894309811682E-003,112.94382609783605,206.49733569264029,247.12457066865278,309.37063760880875,92.664815198350695,90.909999999999997,-2.8196666666666488,0.45026405124793428,-2.4814425794813246,0.22563436647320242
20240403113000,420.43319164391983,4.7912183459825544,1.9912842797675592,0,-7.7551186347587704,0,-3.9874547182492215,1,4.0666027233086064,0,344.50323979341681,6.3075265938933036,17.486778664260157,2.7954806894755539,1.9433730030768457,1.3457511454130406,1.2921071402400521,22950.860689484642,8.2785566332617758E-004,121.20538473045872,221.60209976205761,265.20111544917262,332.00032663318302,92.654798492202701,90.870000000000005,-3.0020000000000095,0.44614970243928609,-2.6613600654315519,0.20901326405722306
20240403120000,420.41094720988144,4.8136398425990450,2.0531391634189151,0,-14.078475673489036,0,-1.8476446583624622,1,3.9874415164827615,0,343.36789004736528,6.1815381501351725,17.601067577461979,2.7804660278658102,1.8205880256801141,1.3199918055233384,1.3119632879757510,13234.742868085770,1.4356153488872501E-003,124.60493924240127,227.81756964219019,272.63944544253360,341.31223312052413,92.658606281901044,91.403333333333336,-3.0173333333333403,0.41960812532450237,-2.6677055774264886,0.20645176328405965
20240403123000,420.24488366759346,4.8469448281807779,1.8252055776773717,0,-15.155328871438103,0,-0.79926066974808929,1,4.3807837042665261,0,344.89872079235704,6.5176578216549714,17.454120147420632,2.6937166532844521,1.9195269889474333,1.3197798922977833,1.2372225765450096,10310.789787187292,1.8427298385629352E-003,118.90824327908878,217.40219255326417,260.17489919151529,325.70810031111444,92.660052254774300,91.356666666666669,-2.9176666666666620,0.42502855964465935,-2.5659966303507531,0.21970520836697574
20240403130000,420.01985324897191,4.8554473199402741,1.7953349565555312,0,-8.9443397102871725,0,1.0747795232241613,1,3.4750029755490996,0,346.31217657931268,6.2010120797048502,17.312085647475023,2.6242186166772252,1.9846899517226657,1.3215442881358235,1.2272420777069690,17051.844928928262,1.1142489319596566E-003,118.01404927258665,215.76732072082712,258.21837516018041,323.25876439347064,92.664262471571192,90.890000000000001,-2.8246666666666442,0.45108696011847427,-2.4747566710577757,0.21171252682130795
20240403133000,419.91749745718499,4.8451251843192695,2.0146689349422791,0,-2.3746367805096007,2,-2.0554944877230636,1,4.3385378768245282,0,344.19654251356098,6.4546580125971591,16.874634083506471,2.7609871471406375,1.8367908802337054,1.3430697002889305,1.3000829926800475,76354.449225417848,2.4883946112828534E-004,121.99805875895130,223.05136069655686,266.93551064136074,334.17158360298203,92.661290517144110,90.646666666666661,-2.8176666666666392,0.46337692120192120,-2.4799580849541485,0.21712010718943298
20240403140000,419.86923606090670,4.8829097716777943,1.8496204558822331,0,4.5464560216465664,0,3.4913021724490996,2,3.0332337875465685,0,344.33710798358754,6.3162033142843832,17.056160926983644,2.7709161560290045,1.8933177546159625,1.2785290223775647,1.2460338960488824,-35106.906276632624,-5.4120405399112363E-004,122.66207650398151,224.26539691206986,268.38840192215383,335.99043108018373,92.647687426215271,90.629999999999995,-2.7126666666666779,0.46784002360582633,-2.3744767116970138,0.20939521525618007
20240403143000,419.83376785559955,4.8869484518280570,1.6182355951871890,0,7.9795114627227193,0,0.88746554021804491,2,3.1776806019700263,0,345.87922067346392,6.3137372641925209,19.002194903026311,2.6420173822315389,1.8542152112762424,1.2350947862907855,1.1655344911529033,-16370.235777877875,-1.1606430266371539E-003,119.54041879869270,218.55801102514096,261.55811870219509,327.43972699968725,92.641584080729174,90.689999999999998,-2.7113333333333571,0.46489030450916008,-2.3764231529235644,0.21509066843772670
20240403150000,419.96491629449224,4.7179985543593332,2.1977781278881694,0,44.622347988040822,0,8.3291174807030632,1,4.1253369265146098,0,343.09553484721999,6.6060853137347451,17.682335111641258,2.8625538848670553,1.9893829691058507,1.4229973589890343,1.3576570766617744,-4626.6045035088546,-4.1066834188204860E-003,120.59344301519852,220.48327513776206,263.86216812568705,330.32412346944847,92.642128517795143,89.116666666666660,-2.9490000000000123,0.53393182118797367,-2.6685283080206545,0.26159623692860895
20240403153000,419.90877961990708,4.5889304545705647,2.0693195080643885,0,31.287767940059105,0,1.6576947436374996,1,4.4156103589716365,0,343.75075604781330,6.6709067694036648,19.033553328125286,2.9051550640806387,1.8391241675520895,1.3338777590524158,1.3170641078900946,-6024.6187395741990,-3.1537265379456792E-003,123.95030694730798,226.62069302249762,271.20708981531561,339.51909384474914,92.656574963107630,87.180000000000007,-3.0243333333333453,0.62542517435746336,-2.7276409233940626,0.24553305660227628
20240403160000,419.97018400817046,4.7485087734203182,1.7226730674208013,0,30.467486392257275,0,-5.8242759385190848,2,2.2058332888125429,0,346.39801784608341,5.8904203386271652,16.037309425306230,2.5220869753613546,1.7250715356120108,1.2487359193603382,1.2023338139059072,-4707.2969698326369,-4.0362866676489978E-003,121.47823279820096,222.10095305031840,265.79811542631313,332.74769976196853,92.667586815130946,88.213333333333338,-2.7216666666666924,0.58810970482277181,-2.4043671057070810,0.22694430253909237
20240403163000,420.06095490674159,4.8743917328254280,1.6751962712057522,0,28.402154388141579,0,-1.2359719698893497,2,3.3942419176836274,0,345.43417718200521,6.3699829995009383,18.212985768183071,2.7383769218442753,1.8198008239249186,1.2822605718399607,1.1860441117963925,-4847.5735189874085,-3.9194867134204579E-003,117.63987179203995,215.08320494860115,257.39966330643216,322.23383430446063,92.676624855685759,89.269999999999996,-2.5283333333333076,0.54312688872137305,-2.1973033841450729,0.22299259258390855
20240403170000,420.05017655763777,4.9125911817775236,1.6679329428490919,0,30.123316673694450,0,0.63639629108320728,1,3.0348153525407229,0,341.28093123984229,6.2869166548854611,18.532990678595013,2.7470911770071309,1.8051930126232616,1.2423933468318320,1.1836485894437656,-4543.2947705141751,-4.1819870731939603E-003,120.45527795187137,220.23066533651317,263.55985871103564,329.94566795564504,92.685278567274310,89.293333333333337,-2.4253333333333558,0.54610117314409878,-2.1080754551357472,0.21222842656623328
20240403173000,420.10519416751771,4.9730575612591990,1.5470632754949392,0,47.316869113376292,0,3.6877558095149281,1,1.7625788925445094,0,342.70986459420709,5.7160178433479247,15.604267736236437,2.4585812112709826,1.6494913557690651,1.1978808852697038,1.1400884650431620,-2584.7599738379863,-7.3507792569953061E-003,120.35796420304341,220.05274476702735,263.34693323090858,329.67911052118262,92.688445341584710,89.950000000000003,-2.3586666666666360,0.51514614857684304,-2.0405826709982193,0.21893070732663789
20240403180000,420.15760349471049,5.0798274264715246,1.3786195049335124,0,31.873917432666719,0,10.018100057067622,1,2.4684700767243015,0,342.73935242319317,5.7404413173227358,15.687879153946326,2.3526014643118787,1.6199197901675408,1.1980999561964156,1.0764166577961469,-3229.4334706157933,-5.8833848639021661E-003,114.93301139639436,210.13420083651673,251.47696937755427,314.81932431793422,92.686067230468751,91.376666666666665,-2.2846666666666806,0.44444677111868830,-1.9599375894334230,0.19673026218078776
20240403183000,420.02739655726174,5.1138208968006564,1.4509524250877956,0,39.457795698588875,0,7.0683971159900114,1,2.1915642900145111,0,343.03429759627039,5.2709787425630434,14.640199857728751,2.3350612958634667,1.4832160430815213,1.1486265068520223,1.1042717662568509,-2816.9920360152196,-6.7447830015439020E-003,121.33123189797571,221.83218852117415,265.47647292834603,332.34504152200100,92.706196143229178,91.706666666666663,-2.2403333333333535,0.42884363420602428,-1.8983356687757578,0.17557330414232164
20240403190000,419.86952296474612,5.1927677670435246,1.2626870411279814,0,19.461581989913594,0,-1.9894259720833809,2,2.5572396535576414,0,344.84832136641023,5.4873815538653856,15.205003025383720,2.3672430850556543,1.5921159289156370,1.1526820324661540,1.0305038858848805,-4642.0466680829277,-4.0930221858037933E-003,114.47930599515871,209.30468266114195,250.48424798352886,313.57655493322039,92.718594599968057,91.643333333333331,-2.0219999999999914,0.43915155168057196,-1.6634953306324860,0.21485650322236441
20240403193000,419.48932021897730,5.3822355400354240,1.2354632158601193,0,27.364895104644617,1,13.874537712891021,1,1.3717102658097224,1,348.42242492994853,5.6356796393633894,16.197832190685979,2.4259996717835786,1.5570756872672213,1.0472497173104167,1.0200001148749143,-3201.6801320340678,-5.9343842034366686E-003,122.60124344644872,224.15417468119131,268.25529731834638,335.82379991098367,92.723683606770834,92.573333333333338,-1.6723333333333130,0.40047728243677227,-1.3036603262159474,0.22036246907610560
20240403200000,419.47180130019609,5.3966450773475456,1.5586512790780878,0,29.093250667550354,1,14.947811276266194,1,1.8407675376792170,0,347.94045597603838,5.5949889848383076,16.464146304880028,2.5740834083908490,1.7499109916200728,1.1656778057493715,1.1456249173150177,-4267.3787754176856,-4.4523818952865992E-003,123.48836439723495,225.77611471194425,270.19634528589359,338.25376163322187,92.739792519531264,92.673333333333332,-1.6483333333333121,0.39578388293728839,-1.2977529470655327,0.23532732614068552
20240403203000,419.62293231591548,5.1573935772084569,1.3883170145264310,0,12.099346165502254,0,-0.82607717565966043,2,2.8371161220671870,0,347.24772222720333,5.5670435838671342,16.437636999245139,2.3789555051808517,1.9004553156362254,1.1838288939180361,1.0800519413864134,-8601.0747010783271,-2.2090262740792088E-003,116.35350350095261,212.73131344636951,254.58504985973210,318.71027226337384,92.791770516927073,91.319999999999993,-2.0559999999999832,0.45499857665507820,-1.7231934661865580,0.20323481928983958
20240403210000,419.67994992776164,5.1627298613392023,1.1872233672276786,0,15.903457057949806,0,1.5085004154805808,1,1.8313006658952773,0,345.86803538648951,5.0973981506601787,15.442706816974411,2.1928520987084168,1.5887218474135592,1.1099885939466312,0.99828344358009968,-5169.4595302172756,-3.6754325841876585E-003,115.02789748805554,210.30768287444013,251.68458306901789,315.07923202330977,92.849988889756943,92.123333333333335,-2.1519999999999868,0.40996856688294259,-1.7996830479656865,0.17127880823546962
20240403213000,419.70527369611000,5.1606917998321329,1.3287266590997739,0,16.120595257852067,0,1.0686611290468366,1,1.2797668752906968,0,346.28133071482074,5.1147239113649032,13.179704732633006,2.1647742196836841,1.5677843514112086,1.1039190347590593,1.0559076638596270,-6036.9767553916872,-3.1472706902558305E-003,120.83865311378698,220.93159740373153,264.39869537494809,330.99579191888381,92.894213243706602,91.926666666666662,-2.1220000000000141,0.42113800470079865,-1.7601514468722712,0.18154475943975279
20240403220000,419.69658623452602,5.2178012880680038,1.1995796002054706,0,5.8556334308830236,1,2.8273084255266698,1,2.7440840507942625,0,342.78011166387989,5.5260279057773145,13.863223016368400,2.2303199741039297,1.5722023150812314,1.1579877252919770,1.0035918615806638,-14270.729967235309,-1.3313965048475302E-003,111.67023749458248,204.16880953564115,244.33791957260354,305.88208111260360,92.900483168836800,91.719999999999999,-1.9416666666666629,0.43771182392060437,-1.5802573017543864,0.18205385318636128
20240403223000,419.59708226949925,5.2127948454124091,1.0289024879797559,0,-0.59331693228889293,2,2.7905795063569281,2,2.4811592838594678,0,349.07903754289282,5.9141803443316228,17.315035667441343,2.3145329710096711,1.6383802003049668,1.0751727515004348,0.92928835019883260,111876.50785594105,1.6983011325724922E-004,111.42757896622400,203.72515235383364,243.80697523760526,305.21740180933256,92.968011134548604,91.033333333333331,-1.8430000000000177,0.47747565429291228,-1.7111001031663591,0.22153408092271237